Location: New Canada
(47.1017°N, 68.5042°W)
Time: 03:01:05
(UTC+00:00)

N. Korean satellite - Pass Details

Date: 02 December 2022
Orbit: 407 x 444 km, 97.3° (Epoch: 28 January)

Event Time Altitude Azimuth Distance (km) Brightness Sun altitude
Rises 11:00:17 0° 357° (N) 2,523 10.0 -10.0°
Reaches altitude 10° 11:02:50 10° 337° (NNW) 1,637 8.8 -9.6°
Maximum altitude 11:05:12 17° 295° (WNW) 1,241 8.0 -9.2°
Drops below altitude 10° 11:07:33 10° 252° (WSW) 1,614 8.8 -8.8°
Sets 11:10:03 0° 232° (SW) 2,474 9.9 -8.4°
